星链-32154 (STARLINK-32154)

导读

STARLINK-32154是美国SpaceX公司星链(Starlink)低轨通信星座的组网卫星,于2024年7月27日发射入轨。它属于星链第二代量产卫星,采用平板造型设计,配备单块太阳电池阵,搭载Ku/Ka波段通信载荷与光学星间链路,依托氪工质霍尔推进器完成轨道维持与离轨操作,设计寿命5-7年,主要为全球提供覆盖广泛的低延迟宽带互联网接入服务,退役后会主动离轨坠入大气层焚毁。

基本信息
目录编号:
60276
目录名称:
STARLINK-32154
国际标识:
2024-131X
轨道中心:
EARTH
卫星名称:
星链-32154 (STARLINK-32154)
卫星全名:
星链-32154 (STARLINK-32154)
卫星状态:
在轨 (已飞行769 天)
发射日期:
2024-07-27 UTC
国别 :
美国 (US)
星等 :
--
轨道信息
数据来源 国际轨道数据
星历时间: 2026-09-04T02:22:37+0800
11小时前
查看轨道信息
半长轴: 6840.856km
偏心率: 0.0001133
轨道倾角: 53.160°
近地点辐角 75.539°
升交点赤经 303.809°
平近点角 284.574°
近地点: 461.943km
远地点: 463.495km
周期: 93.848分钟
每日圈数: 15.343947
详细信息
卫星平台:
Starlink v2.0 mini
运营商:
太空探索技术公司
运营商所在国:
美国
制造商(研发单位):
太空探索技术公司
制造商所在国:
美国
使用方式:
暂无
卫星简介
星链(Starlink)计划是由太空探索技术公司(SpaceX)提出的一个巨型低轨卫星互联网星座项目,计划在2019年至2024年间在太空搭建由约1.2万颗卫星组成的“星链”网络,其中1584颗将部署在地球上空550千米处的近地轨道,并从2020年开始工作。该卫星仍在工作。
2D轨道图
3D轨道图
轨道高度分析图
轨道倾角分析图
轨道综合分析图
查看轨道综合分析图
交会数据列表
事件ID 空间交会对象 最接近时刻(TCA) 交会距离 交会风险概率(CRP) 交会风险指数(CRI) 操作
CDM_260905-063706-027606-926121
2026-09-05T
06:37:17+0000
0.458 km
远距离
1.640099E-4 高风险 0.79
CDM_260905-073606-027606-852321
2026-09-05T
07:36:36+0000
1.243 km
极远距离
7.793282E-6 低风险 0.53
CDM_260904-135104-750206-027621
HAWK-2C (47502)
2026-09-04T
13:51:28+0000
1.217 km
极远距离
7.162845E-6 低风险 0.52
CDM_260905-060206-027606-852321
2026-09-05T
06:02:48+0000
1.319 km
极远距离
6.377295E-6 低风险 0.51
CDM_260905-152206-027606-488121
OBJECT F (64881)
2026-09-05T
15:22:58+0000
1.682 km
极远距离
3.638226E-6 低风险 0.46
CDM_260905-050306-027606-926121
2026-09-05T
05:03:29+0000
1.622 km
极远距离
3.226018E-6 低风险 0.45
CDM_260830-115606-027606-370521
2026-08-30T
11:56:23+0000
2.647 km
极远距离
1.421077E-6 低风险 0.38
CDM_260904-183606-027606-635421
2026-09-04T
18:36:27+0000
2.680 km
极远距离
1.397808E-6 低风险 0.38
CDM_260829-170505-504506-027623
2026-08-29T
17:05:16+0000
2.199 km
极远距离
1.366699E-6 低风险 0.38
CDM_260904-183205-236706-027621
2026-09-04T
18:32:09+0000
2.741 km
极远距离
1.340181E-6 低风险 0.38